TimeAKDT,TemperatureF,Dew PointF,Humidity,Sea Level PressureIn,VisibilityMPH,Wind Direction,Wind SpeedMPH,Gust SpeedMPH,PrecipitationIn,Events,Conditions,WindDirDegrees,DateUTC
12:41 AM,30.2,26.6,86,30.27,1.8,North,12.7,24.2,0.00,Snow,Light Snow,350,2012-10-08 08:41:00
12:48 AM,30.2,28.4,93,30.27,2.0,NNW,13.8,-,0.00,Snow,Light Snow,340,2012-10-08 08:48:00
12:53 AM,32.0,28.0,85,30.27,2.5,NNW,19.6,-,0.00,Snow,Light Snow,330,2012-10-08 08:53:00
1:18 AM,32.0,28.4,87,30.28,2.5,NNW,16.1,-,0.00,Snow,Light Snow,340,2012-10-08 09:18:00
1:44 AM,32.0,28.4,87,30.28,2.5,NNW,15.0,-,0.00,Snow,Light Snow,340,2012-10-08 09:44:00
1:53 AM,32.0,27.0,82,30.29,4.0,NNW,16.1,-,0.00,Snow,Light Snow,340,2012-10-08 09:53:00
2:14 AM,32.0,26.6,80,30.29,10.0,North,13.8,-,0.00,,Overcast,360,2012-10-08 10:14:00
2:29 AM,30.2,26.6,86,30.29,2.5,North,17.3,-,0.00,Snow,Light Snow,350,2012-10-08 10:29:00
2:33 AM,30.2,28.4,93,30.30,1.5,NNW,13.8,-,0.00,Snow,Light Snow,340,2012-10-08 10:33:00
2:45 AM,32.0,26.6,80,30.30,3.0,North,16.1,20.7,0.00,Snow,Light Snow,350,2012-10-08 10:45:00
2:53 AM,32.0,27.0,82,30.31,3.0,North,15.0,-,0.00,Snow,Light Snow,350,2012-10-08 10:53:00
2:59 AM,32.0,26.6,80,30.30,2.5,NNW,16.1,-,0.00,Snow,Light Snow,340,2012-10-08 10:59:00
3:15 AM,32.0,26.6,80,30.30,3.0,NNW,21.9,-,0.00,Snow,Light Snow,340,2012-10-08 11:15:00
3:34 AM,32.0,24.8,75,30.31,10.0,North,18.4,25.3,0.00,,Overcast,350,2012-10-08 11:34:00
3:53 AM,32.0,24.1,73,30.32,10.0,NNW,20.7,26.5,0.00,,Overcast,340,2012-10-08 11:53:00
4:53 AM,32.0,21.9,66,30.33,10.0,NNW,17.3,-,0.00,,Overcast,330,2012-10-08 12:53:00
5:53 AM,30.9,21.0,67,30.35,10.0,NW,16.1,-,0.00,,Overcast,320,2012-10-08 13:53:00
6:53 AM,32.0,19.0,59,30.36,10.0,NNW,16.1,-,N/A,,Overcast,340,2012-10-08 14:53:00
7:53 AM,30.9,21.9,69,30.38,10.0,NNW,10.4,-,N/A,,Overcast,330,2012-10-08 15:53:00
8:53 AM,32.0,21.0,64,30.39,10.0,NNW,13.8,-,N/A,,Overcast,330,2012-10-08 16:53:00
9:53 AM,32.0,19.0,59,30.40,10.0,NNW,15.0,-,N/A,,Overcast,330,2012-10-08 17:53:00
10:53 AM,32.0,19.9,61,30.42,10.0,NNW,12.7,-,N/A,,Mostly Cloudy,330,2012-10-08 18:53:00
11:53 AM,33.1,21.9,64,30.44,10.0,WNW,10.4,-,N/A,,Scattered Clouds,300,2012-10-08 19:53:00
12:53 PM,33.1,21.9,64,30.45,10.0,WNW,10.4,-,N/A,,Mostly Cloudy,290,2012-10-08 20:53:00
1:53 PM,32.0,26.1,79,30.47,7.0,WNW,16.1,-,0.00,,Overcast,300,2012-10-08 21:53:00
2:04 PM,33.8,24.8,70,30.47,10.0,WNW,13.8,24.2,N/A,,Mostly Cloudy,290,2012-10-08 22:04:00
2:13 PM,32.0,23.0,69,30.47,10.0,WNW,16.1,23.0,N/A,,Overcast,300,2012-10-08 22:13:00
2:53 PM,32.0,24.1,73,30.49,10.0,WNW,10.4,19.6,N/A,,Mostly Cloudy,290,2012-10-08 22:53:00
3:17 PM,32.0,24.8,75,30.49,3.0,WNW,12.7,-,0.00,Snow,Light Snow,300,2012-10-08 23:17:00
3:53 PM,30.9,25.0,79,30.50,10.0,West,12.7,-,0.00,,Overcast,270,2012-10-08 23:53:00
4:51 PM,32.0,24.8,75,30.51,3.0,WNW,13.8,20.7,0.00,Snow,Light Snow,300,2012-10-09 00:51:00
4:53 PM,32.0,23.0,69,30.51,8.0,WNW,15.0,20.7,0.00,,Overcast,300,2012-10-09 00:53:00
5:19 PM,32.0,21.2,64,30.51,10.0,WNW,12.7,23.0,N/A,,Overcast,300,2012-10-09 01:19:00
5:53 PM,32.0,23.0,69,30.52,10.0,WNW,10.4,20.7,0.00,,Overcast,300,2012-10-09 01:53:00
6:53 PM,30.9,25.0,79,30.52,4.0,WNW,16.1,-,0.00,Snow,Light Snow,300,2012-10-09 02:53:00
7:53 PM,32.0,23.0,69,30.53,10.0,NW,11.5,-,0.00,,Mostly Cloudy,310,2012-10-09 03:53:00
8:06 PM,33.8,24.8,70,30.52,10.0,WNW,15.0,-,N/A,,Mostly Cloudy,300,2012-10-09 04:06:00
8:34 PM,33.8,24.8,70,30.53,10.0,NW,13.8,-,N/A,,Overcast,310,2012-10-09 04:34:00
8:48 PM,33.8,21.2,60,30.53,10.0,WNW,9.2,20.7,N/A,,Overcast,290,2012-10-09 04:48:00
8:53 PM,34.0,21.9,61,30.54,10.0,WNW,10.4,-,N/A,,Overcast,290,2012-10-09 04:53:00
9:39 PM,32.0,28.4,87,30.54,2.0,WNW,15.0,25.3,0.00,Snow,Light Snow,290,2012-10-09 05:39:00
9:46 PM,32.0,28.4,87,30.55,1.5,NW,11.5,21.9,0.00,Snow,Light Snow,310,2012-10-09 05:46:00
9:53 PM,33.1,28.9,85,30.55,4.0,NW,16.1,19.6,0.00,Snow,Light Snow,310,2012-10-09 05:53:00
10:53 PM,33.1,27.0,78,30.56,10.0,WNW,17.3,-,0.00,,Overcast,300,2012-10-09 06:53:00
11:06 PM,33.8,26.6,75,30.56,10.0,NW,12.7,-,N/A,,Overcast,320,2012-10-09 07:06:00
11:27 PM,33.8,26.6,75,30.57,9.0,WNW,11.5,23.0,N/A,,Overcast,300,2012-10-09 07:27:00